Location: Abraham Lincoln Continuation High School
(33.9711°N, 117.3662°W)
Time: 14:54:40
(UTC+00:00)

Cosmos 1844 Rocket - Pass Details

Date: 21 September 2020
Orbit: 823 x 846 km, 71.0° (Epoch: 29 October)

Event Time Altitude Azimuth Distance (km) Brightness Sun altitude
Rises 03:28:35 0° 210° (SSW) 3,342 6.0 -21.4°
Reaches altitude 10° 03:31:02 10° 214° (SW) 2,413 5.3 -21.9°
Maximum altitude 03:36:28 57° 293° (WNW) 964 3.2 -23.0°
Drops below altitude 10° 03:41:57 10° 12° (NNE) 2,434 5.1 -24.1°
Sets 03:44:27 0° 17° (NNE) 3,373 5.9 -24.5°
